Regional Weather Roundup
Issued by NWS Glasgow, MT

Home | Current Version | Previous Version | Text Only | Print | Product List | Glossary On
Versions: 1 2 3 4 5 6 7 8 9 10 11 12 13 14 15 16 17 18 19 20 21 22 23 24 25 26 27 28 29 30 31 32 33 34 35 36 37 38 39 40 41 42 43 44 45 46 47 48 49 50
000
ASUS45 KGGW 201815
RWRGGW
HOURLY REGIONAL WEATHER ROUNDUP FOR NORTHEAST MONTANA
NATIONAL WEATHER SERVICE GLASGOW MONTANA
1100 AM MST FRI JAN 20 2017

NOTE: "FAIR" INDICATES FEW OR NO CLOUDS BELOW 12,000 FEET WITH NO
SIGNIFICANT WEATHER AND/OR OBSTRUCTIONS TO VISISBILITY.

NORTHEAST MONTANA


CITY           SKY/WX    TMP DP  RH WIND       PRES   REMARKS
GLASGOW        CLOUDY    33  28  81 W9        29.40F
6HR MIN TEMP:  28; 6HR MAX TEMP:  34;

PLENTYWOOD       N/A     29  25  85 NW8         N/A
WOLF POINT     CLOUDY    27  23  85 SW6       29.40F
JORDAN           N/A     38  33  82 W6        29.41F
WINNETT          N/A     39  32  76 SW2         N/A
SIDNEY         CLOUDY    24  19  81 SW5       29.40S
GLENDIVE       MOSUNNY   20  16  84 S7        29.40F
MALTA            N/A     38  32  79 SW6         N/A
SCOBEY           N/A     24  18  77 CALM      29.40F

FORT PECK REPORTS


CITY           SKY/WX    TMP DP  RH WIND       PRES   REMARKS
FORT PECK        N/A     37  30  75 W5          N/A
THE PINES        N/A     45  27  49 NW1         N/A

SOUTHEAST MONTANA


CITY           SKY/WX    TMP DP  RH WIND       PRES   REMARKS
BILLINGS       CLOUDY    36  28  73 SW15      29.45F
MILES CITY     CLOUDY    35  32  88 W12       29.42F
BAKER          CLOUDY    28  25  88 W3        29.40F
LIVINGSTON     SUNNY     39  19  44 SW13G25   29.43F

CENTRAL MONTANA


CITY           SKY/WX    TMP DP  RH WIND       PRES   REMARKS
HAVRE          SUNNY     35  29  78 SW12      29.42F
LEWISTOWN      CLOUDY    35  27  72 W3        29.42F
GREAT FALLS    CLOUDY    38  25  59 SW15      29.42F
CUT BANK       SUNNY     37  21  52 NW3       29.38F
HELENA         SUNNY     27  23  85 VRB3      29.45F
BUTTE          SUNNY     17  16  95 CALM      29.44F FOG
BOZEMAN        SUNNY     27  21  78 NW3       29.47F

WESTERN MONTANA


CITY           SKY/WX    TMP DP  RH WIND       PRES   REMARKS
MISSOULA       CLOUDY    32  31  96 S8        29.45F
KALISPELL      NOT AVBL

NORTH DAKOTA


CITY           SKY/WX    TMP DP  RH WIND       PRES   REMARKS
WILLISTON      MOSUNNY   23  18  81 CALM      29.38F
DICKINSON      MOSUNNY   29  25  85 NW7       29.34S
MINOT          MOSUNNY   25  20  81 S8        29.38F
BISMARCK       CLOUDY    28  26  92 W3        29.40F FOG

SOUTHERN SASKATCHEWAN


CITY           SKY/WX    TMP DP  RH WIND       PRES   REMARKS
REGINA         PTSUNNY   23  21  93 S3        29.34F
MOOSE JAW      PTSUNNY   39  30  70 W9        29.35F
ESTEVAN        CLOUDY    18  14  86 W5        29.35F
SWIFT CURRENT  CLOUDY    37  27  65 W17G23    29.32F




USA.gov is the U.S. government's official web portal to all federal, state and local government web resources and services.